Tracking 28799 objects as of 18-Apr-2024
HD Live streaming from Space Station
objects crossing your sky now

OPS 4682 DEB

Track OPS 4682 DEB now!
10-day predictions


NORAD ID: 38429
Int'l Code: 1965-027EJ
Perigee: 1,247.9 km
Apogee: 1,310.1 km
Inclination: 90.2 °
Period: 111.0 minutes
Semi major axis: 7649 km
RCS: 0.0033 m2 (small)
Launch date: April 3, 1965
Source: United States (US)
Launch site: AIR FORCE WESTERN TEST RANGE (AFWTR)

Note: This is SATELLITE DEBRIS
Your satellite tracking list
Your tracking list is empty




NASA's NSSDC Master Catalog

Two Line Element Set (TLE):
1 38429U 65027EJ  24101.42281961  .00000656  00000-0  22265-2 0  9993
2 38429  90.2454 343.3553 0040644 336.3147  23.6101 12.97518826485945
Source of the keplerian elements: AFSPC